Location: Turtle Rock Observatory
(36.6913°N, 81.9708°W)
Time: 05:29:48
(UTC-05:00)

Lacrosse 5 rocket - Visible Passes

Search period start: 07 December 2016 00:00
Search period end: 17 December 2016 00:00
Orbit: 466 x 639 km, 57.0° (Epoch: 06 December)

Date Brightness Start Highest point End Pass type
(mag) Time Alt. Az. Time Alt. Az. Time Alt. Az.
15 Dec 4.0 05:33:27 10° N 05:34:46 11° NNE 05:36:05 10° NE visible
16 Dec 3.9 05:29:11 12° NNE 05:30:33 14° NNE 05:32:50 10° ENE visible
16 Dec 1.7 07:06:01 10° NW 07:10:25 76° NE 07:15:00 10° SE visible
